Zurück zum Katalog

IUS R/B(2)

AktivGEO
NORAD 21807·ROCKET BODY·🇺🇸 United States

Gestartet Nov 24, 1991 von Cape Canaveral Space Force Station

Loading…

TLE

AktuellSource: Space-Track

Epoche: Sep 14, 2026, 09:42 UTC

1 21807U 91080D   26257.40445115  .00000035  00000-0  00000-0 0  9990
2 21807  13.4217 341.9941 0021115 350.5322   9.4482  1.01278700 26864

Verfolge IUS R/B(2) in Echtzeit mit AllMySat

Download on the App Store